Weather Roundup
Issued by NWS

Home | Current Version | Previous Version | Text Only | Print | Product List | Glossary On
Versions: 1 2 3 4 5 6 7 8 9 10 11 12 13 14 15 16 17 18 19 20 21 22 23 24 25 26 27 28 29 30 31 32 33 34 35 36 37 38 39 40 41 42 43 44 45 46 47 48 49 50
000
NZUS93 KARX 041010
HRRWXR

CURRENT HOURLY OBSERVATIONS ACROSS
MUCH OF THE UPPER MISSISSIPPI VALLEY
NATIONAL WEATHER SERVICE LA CROSSE WI
400 AM CST WED MAR 04 2015


...SOUTHEAST MINNESOTA...


CITY           SKY/WX    TMP DP  RH WIND       PRES   REMARKS
ROCHESTER      PTCLDY     2  -6  69 NW22      30.03R WCI -20
ROCHESTER/MAYO FAIR       3  -6  64 W17       30.05R WCI -16
WINONA         CLEAR     10   1  67 NW10      30.09R WCI  -3
AUSTIN         PTCLDY     3  -2  78 NW12      30.07R WCI -13
ALBERT LEA     PTCLDY     3  -6  66 NW12G20   30.08R WCI -13
DODGE CENTER   PTCLDY     1  -2  85 NW14G20   30.04R WCI -17
PRESTON        CLEAR      3  -5  69 NW17G24   30.04R WCI -17
OWATONNA       PTCLDY     1  -6  71 W15       30.08S WCI -18
FARIBAULT      CLEAR      1  -6  71 W9        30.10R WCI -14
$$

...ELSEWHERE IN MINNESOTA...


CITY           SKY/WX    TMP DP  RH WIND       PRES   REMARKS
MINNEAPOLIS    CLEAR      1  -7  68 W12       30.10S WCI -16
INTNL FALLS    CLEAR    -11 -17  75 W7        29.92R WCI -26
DULUTH         CLEAR     -5 -12  72 W14       29.90R WCI -25
RED WING       CLEAR      3  -8  60 W8        30.09R WCI -10
REDWOOD FALLS  CLEAR     -2  -9  72 W8        30.13R WCI -17
MANKATO        FAIR       1  -6  71 W12       30.12R WCI -15
FAIRMONT       PTCLDY     3  -6  66 NW13      30.10S WCI -14
$$

...SOUTHWEST WISCONSIN...


CITY           SKY/WX    TMP DP  RH WIND       PRES   REMARKS
LA CROSSE      PTCLDY     9  -1  64 NW15      30.06R WCI  -8
PRAIRIE DU CHI FAIR      10  -1  63 NW15      30.07R WCI  -7
BOSCOBEL       CLEAR     11  -1  58 NW6       30.05R WCI   1
LONE ROCK      CLEAR     12   1  61 W14       30.02R WCI  -3
PLATTEVILLE    MOCLDY    11   5  74 W12       30.01R WCI  -3
FORT MC COY    CLEAR      9  -1  65 NW6       30.03R WCI  -1
CAMP DOUGLAS   CLEAR      8  -1  65 W13       29.99R WCI  -8
VIROQUA        FAIR       6  -1  73 NW13G18   29.98R WCI -10
WIS DELLS      CLEAR     11   2  67 NW9       29.97R WCI  -2
$$

...ELSEWHERE IN WISCONSIN...


CITY           SKY/WX    TMP DP  RH WIND       PRES   REMARKS
MILWAUKEE      CLEAR     21   9  59 NW13      29.91R WCI   9
MADISON        PTCLDY    14   5  67 NW8       29.96R WCI   3
GREEN BAY      CLEAR     12   3  67 W7        29.89R WCI   1
EAU CLAIRE     CLEAR      2  -7  66 W13       30.03R WCI -15
BLACK RVR FLS  FAIR       7  -4  59 NW9       30.02R WCI  -6
MEDFORD        CLEAR      1  -8  67 W10G17    29.91R WCI -15
WAUSAU         CLEAR      5  -3  69 W15       29.90R WCI -13
WIS RAPIDS     FAIR       7  -4  60 W14       29.97R WCI -10
MARSHFIELD     CLEAR      4  -6  63 NW18      29.94R WCI -16
RICE LAKE      CLEAR     -1  -8  74 W5        30.02R WCI -12
$$

...NORTHEAST IOWA...


CITY           SKY/WX    TMP DP  RH WIND       PRES   REMARKS
DECORAH        MOCLDY     5  -4  66 NW12      30.04R WCI -11
MASON CITY     CLEAR      5  -5  63 NW20      30.12R WCI -15
CHARLES CITY   CLOUDY     7  -2  66 NW21      30.10R WCI -13
OELWEIN        CLOUDY     9   0  66 NW18G26   30.08R WCI -10
$$

...ELSEWHERE IN IOWA...


CITY           SKY/WX    TMP DP  RH WIND       PRES   REMARKS
DES MOINES     MOCLDY    15   1  53 N12       30.16S WCI   2
IOWA CITY      CLEAR     10   3  73 NW13      30.13R WCI  -5
FORT DODGE     PTCLDY     9  -4  56 NW8G16    30.15S WCI  -4
$$

...NORTHERN ILLINOIS...


CITY           SKY/WX    TMP DP  RH WIND       PRES   REMARKS
CHICAGO-OHARE  MOCLDY    23  17  78 NW17      29.92R WCI   9
CHICAGO-MIDWAY PTCLDY    29  21  72 W15       29.93R WCI  18
MOLINE         PTCLDY    12   2  64 NW17G24   30.09R WCI  -5
ROCKFORD       MOCLDY    14   6  70 NW13      29.99R WCI   0
PEORIA         PTCLDY    18   9  68 NW12G22   30.07R WCI   5
$$

NOTE: "FAIR" INDICATES FEW OR NO CLOUDS BELOW 12,000 FEET WITH NO
SIGNIFICANT WEATHER AND/OR OBSTRUCTIONS TO VISIBILITY. WIND
SPEEDS ARE IN MILES-PER-HOUR.



USA.gov is the U.S. government's official web portal to all federal, state and local government web resources and services.